Location: Melque
(41.0517°N, 4.4694°W)
Time: 16:31:23
(UTC+00:00)

SL-08 R/B - Pass Details

Date: 11 December 2025
Orbit: 946 x 992 km, 83.0° (Epoch: 16 January)

Event Time Altitude Azimuth Distance (km) Brightness Sun altitude
Rises 18:40:01 0° 356° (N) 3,705 7.4 -20.1°
Reaches altitude 10° 18:42:36 10° 0° (N) 2,757 6.7 -20.6°
Maximum altitude 18:48:51 59° 80° (E) 1,133 4.5 -21.7°
Drops below altitude 10° 18:55:04 10° 159° (SSE) 2,744 6.8 -22.9°
Sets 18:57:37 0° 163° (SSE) 3,687 7.5 -23.3°
